[[{"header":{"parameterUnit":"m.s-1","parameterCategory":1,"la1":30.2991,"la2":30.254,"lo1":-89.0895,"lo2":-89.0444,"dy":0.0017,"dx":0.0017,"nx":28,"ny":28,"refTime":"2025-01-27T03:00:00:Z","depth":0,"parameterNumber":2,"parameterNumberName":"U-component_of_WINDS"},"data":[0,0,0,0,0,0,0,0,0,0,0,0,0,0,0,0,0,0,0,0,0,0,0,0,0,0,0,0,0,0,0,0,0,0,0,0,0,0,0,0,0,0,0,0,0,0,0,0,0,0,0,0,0,0,0,0,0,0,-2.6234,-2.6234,0,-2.6262,-2.6263,-2.6263,-2.6246,-2.6245,-2.6244,-2.6244,-2.6274,-2.6275,-2.6277,0,0,0,0,0,0,0,0,0,0,0,0,0,-2.6166,-2.6167,-2.6234,-2.6234,-2.6234,-2.6262,-2.6263,-2.6263,-2.6246,-2.6245,-2.6244,-2.6243,-2.6273,-2.6275,-2.6277,0,0,0,0,0,0,0,0,0,0,0,0,0,-2.6195,-2.6168,-2.6234,-2.6229,-2.6229,-2.6262,-2.6263,-2.6263,-2.6246,-2.6245,-2.6244,-2.6243,-2.6273,-2.6275,-2.6277,-2.6317,0,0,-2.6285,-2.6286,0,0,0,0,0,0,0,0,-2.6193,-2.6197,-2.623,-2.623,-2.623,-2.6249,-2.625,-2.6281,-2.6247,-2.624,-2.6244,-2.6242,-2.6267,-2.627,-2.6278,-2.6318,-2.6319,-2.6285,-2.6286,-2.6287,-2.6288,0,0,0,0,0,0,0,-2.6191,-2.6196,-2.6245,-2.623,-2.623,-2.6227,-2.6229,-2.6256,-2.626,-2.624,-2.6239,-2.6243,-2.6267,-2.6275,-2.6278,-2.632,-2.6285,-2.6287,-2.6288,-2.6289,-2.6395,-2.6396,0,0,0,0,0,0,-2.6189,-2.6195,-2.6244,-2.6246,-2.6208,-2.6229,-2.6232,-2.6244,-2.626,-2.6261,-2.6244,-2.6242,-2.6272,-2.6276,-2.6279,-2.6326,-2.6287,-2.6289,-2.6291,-2.6393,-2.6395,-2.6396,0,0,0,0,0,0,-2.6188,-2.6194,-2.6243,-2.622,-2.6226,-2.6231,-2.6245,-2.6246,-2.6254,-2.6262,-2.6263,-2.6252,-2.6271,-2.6276,-2.6308,-2.6327,-2.629,-2.6293,-2.6392,-2.6394,-2.6396,-2.642,0,0,0,0,0,0,-2.6186,-2.6194,-2.6208,-2.622,-2.6227,-2.627,-2.6247,-2.6247,-2.6258,-2.6256,-2.627,-2.6271,-2.6271,-2.6304,-2.631,-2.6329,-2.6294,-2.639,-2.6393,-2.6395,-2.6417,-2.6423,-2.6427,0,0,0,0,0,-2.6184,-2.6214,-2.6209,-2.6215,-2.6245,-2.6271,-2.6275,-2.6274,-2.626,-2.6275,-2.628,-2.6271,-2.6324,-2.6308,-2.6314,-2.6334,-2.6389,-2.6392,-2.6395,-2.6415,-2.6422,-2.6427,0,0,0,0,0,0,-2.6203,-2.6215,-2.621,-2.6244,-2.6257,-2.6268,-2.6287,-2.628,-2.6297,-2.6294,-2.6292,-2.6296,-2.6328,-2.6335,-2.6316,-2.6374,-2.6354,-2.6359,-2.6368,-2.6374,-2.6379,-2.6376,-2.6296,0,0,0,0,0,-2.6211,-2.6231,-2.6241,-2.6271,-2.6277,-2.6281,-2.6292,-2.629,-2.6303,-2.6308,-2.6316,-2.6329,-2.6349,-2.6362,-2.6381,-2.6419,-2.6422,-2.6437,-2.6442,-2.6445,-2.6449,-2.647,-2.6477,-2.6407,-2.6407,-2.6407,0,0,-2.6229,-2.6238,-2.625,-2.6275,-2.6284,-2.6305,-2.6285,-2.6308,-2.6324,-2.6312,-2.6342,-2.6349,-2.6363,-2.6398,-2.6414,-2.6405,-2.6469,-2.6449,-2.6452,-2.6454,-2.6474,-2.648,-2.6486,-2.6409,-2.6408,-2.6408,0,0,-2.627,-2.6279,-2.6305,-2.6315,-2.633,-2.6333,-2.6339,-2.6352,-2.6356,-2.6386,-2.6378,-2.6397,-2.6431,-2.6442,-2.6452,-2.6501,-2.6493,-2.6507,-2.6531,-2.6552,-2.6558,-2.6562,-2.6579,-2.6585,-2.6511,-2.6511,-2.6511,0,-2.6289,-2.632,-2.6319,-2.6343,-2.6354,-2.6345,-2.6371,-2.6382,-2.6402,-2.641,-2.64,-2.6443,-2.6452,-2.649,-2.6502,-2.6511,-2.6518,-2.6504,-2.6557,-2.6562,-2.6566,-2.6582,-2.6589,-2.6512,-2.6512,-2.6512,-2.6512,0,-2.6343,-2.6365,-2.6384,-2.6404,-2.6418,-2.6443,-2.6446,-2.646,-2.6458,-2.6462,-2.6494,-2.6505,-2.6526,-2.6535,-2.6533,-2.6573,-2.6567,-2.6557,-2.6537,-2.6574,-2.6589,-2.6596,-2.6515,-2.6514,-2.6514,-2.6513,0,0,-2.6395,-2.6416,-2.6423,-2.6432,-2.6449,-2.6466,-2.6491,-2.6512,-2.6524,-2.6539,-2.656,-2.659,-2.6581,-2.6593,-2.6592,-2.6611,-2.6648,-2.6598,-2.6599,-2.6606,-2.6693,-2.67,-2.6707,-2.6644,-2.6645,-2.6646,-2.6692,0,-2.6438,-2.6481,-2.6482,-2.6522,-2.6542,-2.6535,-2.6557,-2.657,-2.6575,-2.6594,-2.66,-2.6621,-2.6608,-2.6615,-2.6633,-2.664,-2.6665,-2.6637,-2.6663,-2.6664,-2.6658,-2.6715,-2.6721,-2.6763,-2.6698,-2.6699,-2.6699,0,-2.6492,-2.6509,-2.6551,-2.6565,-2.6574,-2.6594,-2.6613,-2.6631,-2.6647,-2.6649,-2.6663,-2.666,-2.6687,-2.6668,-2.6705,-2.6685,-2.6697,-2.6702,-2.6704,-2.6705,-2.6683,-2.6716,-2.6777,-2.6783,-2.6709,-2.6708,-2.6707,0,-2.6525,-2.6558,-2.6588,-2.6596,-2.6614,-2.6628,-2.6637,-2.6651,-2.6664,-2.6681,-2.669,-2.671,-2.6721,-2.6738,-2.6741,-2.6727,-2.6778,-2.6759,-2.6781,-2.6781,-2.679,-2.6789,-2.6853,-2.68,-2.68,-2.68,-2.68,0,-2.6571,-2.6597,-2.6603,-2.6621,-2.665,-2.6652,-2.6681,-2.6688,-2.6701,-2.6721,-2.6717,-2.6736,-2.6739,-2.6759,-2.6762,-2.6792,-2.6798,-2.6801,-2.6801,-2.68,-2.68,-2.6806,-2.6803,-2.6802,-2.6801,-2.6801,-2.6801,0,-2.6611,-2.6617,-2.6649,-2.6664,-2.6668,-2.6689,-2.6702,-2.672,-2.6725,-2.6751,-2.6757,-2.6766,-2.6789,-2.6794,-2.6822,-2.6824,-2.686,-2.6858,-2.6854,-2.6854,-2.6875,-2.6872,-2.6943,-2.6952,-2.6895,-2.6896,-2.6896,0,-2.664,-2.6659,-2.6677,-2.669,-2.6699,-2.672,-2.6733,-2.6736,-2.675,-2.677,-2.6786,-2.6809,-2.6827,-2.6865,-2.6874,-2.6896,-2.6894,-2.6917,-2.6897,-2.6896,-2.6893,-2.6891,-2.6893,-2.692,-2.6921,-2.6921,-2.6922,0,-2.6689,-2.6691,-2.671,-2.673,-2.6746,-2.6763,-2.6778,-2.6789,-2.6795,-2.6811,-2.6835,-2.6849,-2.6878,-2.6901,-2.6923,-2.6932,-2.6928,-2.6929,-2.6935,-2.6933,-2.693,-2.6931,-2.6864,-2.6926,-2.6926,-2.6926,-2.6925,-2.6925,-2.6724,-2.6741,-2.6756,-2.6778,-2.679,-2.6805,-2.6822,-2.6831,-2.6851,-2.6874,-2.6875,-2.6901,-2.6918,-2.6947,-2.6958,-2.6979,-2.6971,-2.698,-2.6982,-2.6984,-2.6985,-2.6928,-2.6983,-2.6983,-2.6983,-2.6983,-2.6983,0,-2.6772,-2.6782,-2.6802,-2.6824,-2.6841,-2.6836,-2.6854,-2.6869,-2.6891,-2.6907,-2.6926,-2.6954,-2.6976,-2.6988,-2.7011,-2.7026,-2.7024,-2.7031,-2.703,-2.7032,-2.6991,-2.6983,-2.7032,-2.7032,-2.7032,-2.7032,-2.7032,-2.7032,-2.6799,-2.6828,-2.6832,-2.6868,-2.6878,-2.6903,-2.6913,-2.6928,-2.694,-2.6971,-2.699,-2.6998,-2.7012,-2.7037,-2.7058,-2.7061,-2.7069,-2.7077,-2.7079,-2.704,-2.7035,-2.703,-2.7022,-2.7079,-2.7079,-2.7117,-2.7118,-2.7118]},{"header":{"parameterUnit":"m.s-1","parameterCategory":1,"la1":30.2991,"la2":30.254,"lo1":-89.0895,"lo2":-89.0444,"dy":0.0017,"dx":0.0017,"nx":28,"ny":28,"refTime":"2025-01-27T03:00:00:Z","depth":0,"parameterNumber":3,"parameterNumberName":"V-component_of_WINDS"},"data":[0,0,0,0,0,0,0,0,0,0,0,0,0,0,0,0,0,0,0,0,0,0,0,0,0,0,0,0,0,0,0,0,0,0,0,0,0,0,0,0,0,0,0,0,0,0,0,0,0,0,0,0,0,0,0,0,0,0,2.5337,2.5337,0,2.5336,2.5336,2.5336,2.5355,2.5356,2.5356,2.5357,2.5355,2.5354,2.5354,0,0,0,0,0,0,0,0,0,0,0,0,0,2.5357,2.5356,2.5337,2.5337,2.5337,2.5336,2.5336,2.5336,2.5355,2.5356,2.5356,2.5357,2.5355,2.5354,2.5353,0,0,0,0,0,0,0,0,0,0,0,0,0,2.5351,2.5356,2.5337,2.5347,2.5347,2.5336,2.5336,2.5336,2.5355,2.5356,2.5357,2.5357,2.5355,2.5354,2.5353,2.5332,0,0,2.5351,2.535,0,0,0,0,0,0,0,0,2.5351,2.535,2.5345,2.5346,2.5347,2.5346,2.5342,2.5334,2.5355,2.5352,2.5357,2.5358,2.5351,2.5351,2.5349,2.5332,2.5332,2.5351,2.535,2.535,2.535,0,0,0,0,0,0,0,2.5352,2.535,2.5337,2.5345,2.5346,2.5351,2.5351,2.5341,2.5347,2.5352,2.5354,2.5353,2.5352,2.5349,2.5349,2.5332,2.5351,2.535,2.535,2.5349,2.53,2.5299,0,0,0,0,0,0,2.5351,2.5351,2.5337,2.5336,2.5351,2.535,2.535,2.5346,2.5347,2.5348,2.5353,2.5354,2.535,2.535,2.5349,2.5326,2.535,2.5349,2.5349,2.5301,2.53,2.5299,0,0,0,0,0,0,2.5351,2.5349,2.5337,2.5344,2.5343,2.5349,2.5344,2.5345,2.5343,2.5348,2.5349,2.5349,2.5351,2.535,2.5337,2.5326,2.5349,2.5348,2.5302,2.53,2.5299,2.5278,0,0,0,0,0,0,2.5352,2.5349,2.5341,2.5344,2.5342,2.5324,2.5343,2.5345,2.5342,2.5344,2.5345,2.5345,2.5352,2.5338,2.5336,2.5325,2.5347,2.5303,2.5301,2.53,2.528,2.5276,2.5273,0,0,0,0,0,2.5352,2.5335,2.5341,2.5339,2.5332,2.5324,2.5323,2.5331,2.5341,2.5333,2.5336,2.5345,2.5327,2.5336,2.5334,2.5323,2.5303,2.5301,2.53,2.5281,2.5277,2.5273,0,0,0,0,0,0,2.533,2.5335,2.5342,2.5325,2.5324,2.5327,2.5317,2.5325,2.5321,2.5323,2.5333,2.5333,2.5318,2.5319,2.5329,2.5303,2.5317,2.5315,2.5304,2.53,2.5296,2.5297,2.5347,0,0,0,0,0,2.5324,2.5316,2.5321,2.5305,2.5304,2.5311,2.5307,2.5314,2.5313,2.5312,2.5314,2.5313,2.5308,2.5303,2.5298,2.528,2.5281,2.5271,2.5268,2.5265,2.5263,2.5255,2.5251,2.5293,2.5293,2.5293,0,0,2.5309,2.5311,2.5306,2.5301,2.5301,2.5294,2.531,2.5301,2.5296,2.5311,2.5299,2.53,2.53,2.5284,2.5278,2.5285,2.5252,2.5263,2.526,2.526,2.5253,2.5249,2.5245,2.5291,2.5292,2.5292,0,0,2.528,2.528,2.5268,2.5268,2.5268,2.5273,2.527,2.5272,2.5274,2.5262,2.5273,2.5267,2.5256,2.5256,2.5254,2.5226,2.5235,2.5224,2.5207,2.5199,2.5196,2.5193,2.5185,2.5181,2.5222,2.5222,2.5222,0,2.5262,2.5252,2.526,2.5251,2.5249,2.5263,2.5251,2.525,2.5248,2.5247,2.5255,2.5243,2.5243,2.5228,2.5222,2.5219,2.5217,2.5225,2.5196,2.5193,2.5191,2.5183,2.5179,2.5221,2.5221,2.5221,2.5221,0,2.5231,2.5223,2.5213,2.5212,2.5209,2.5198,2.5206,2.5202,2.5208,2.5212,2.5201,2.5202,2.5198,2.5194,2.52,2.5181,2.5186,2.5194,2.5208,2.5185,2.5178,2.5175,2.5219,2.5219,2.522,2.522,0,0,2.5188,2.5192,2.5189,2.5189,2.5191,2.5185,2.5175,2.5172,2.5169,2.5167,2.516,2.5151,2.516,2.5158,2.5164,2.5157,2.5136,2.5167,2.5167,2.5162,2.5117,2.5111,2.5107,2.5142,2.5141,2.5141,2.5117,0,2.516,2.5145,2.5153,2.5136,2.513,2.5143,2.5135,2.5136,2.5139,2.5135,2.5138,2.5133,2.5144,2.5143,2.5136,2.514,2.5127,2.5142,2.5136,2.5136,2.5137,2.5103,2.5097,2.5074,2.5114,2.5114,2.5113,0,2.5126,2.5124,2.5108,2.5112,2.5109,2.5102,2.51,2.5096,2.5096,2.51,2.5098,2.5106,2.5098,2.5111,2.51,2.5109,2.5108,2.5109,2.5108,2.5109,2.5124,2.5104,2.5067,2.5064,2.5109,2.5109,2.5109,0,2.5098,2.5091,2.5081,2.508,2.5085,2.5079,2.5081,2.5082,2.508,2.5079,2.5078,2.5075,2.5073,2.5071,2.5078,2.5087,2.5067,2.508,2.507,2.507,2.5066,2.5066,2.5029,2.5062,2.5062,2.5062,2.5062,0,2.5068,2.5057,2.5069,2.5062,2.5051,2.5061,2.5049,2.5052,2.5054,2.5049,2.5059,2.5054,2.5063,2.5059,2.5065,2.5056,2.5054,2.5057,2.5059,2.5057,2.5057,2.5057,2.5059,2.5061,2.5062,2.5062,2.5062,0,2.5035,2.5042,2.5032,2.5037,2.5038,2.503,2.5034,2.5029,2.5033,2.5027,2.5025,2.5032,2.5028,2.5035,2.5031,2.5035,2.5023,2.5026,2.5023,2.5024,2.5014,2.5016,2.4977,2.4973,2.5007,2.5007,2.5007,0,2.5015,2.5008,2.5013,2.501,2.5011,2.5007,2.5005,2.5014,2.5012,2.5013,2.5008,2.5005,2.5003,2.4996,2.5001,2.4998,2.5002,2.4989,2.5002,2.5001,2.5004,2.5005,2.5005,2.4987,2.4986,2.4986,2.4986,0,2.4981,2.4985,2.4982,2.4981,2.4979,2.4978,2.4979,2.4976,2.4986,2.4983,2.4979,2.4977,2.4974,2.4972,2.4971,2.4972,2.4981,2.4981,2.4979,2.4978,2.4976,2.4978,2.5017,2.4982,2.4983,2.4983,2.4983,2.4983,2.4955,2.495,2.4953,2.495,2.4951,2.4951,2.4947,2.4951,2.4948,2.4947,2.4953,2.4948,2.495,2.495,2.495,2.4947,2.4953,2.4949,2.4949,2.4948,2.4947,2.4976,2.4947,2.4947,2.4947,2.4947,2.4947,0,2.4922,2.4925,2.4922,2.4923,2.4921,2.4929,2.493,2.4928,2.4924,2.4925,2.4923,2.492,2.4917,2.4922,2.4921,2.4917,2.4921,2.4917,2.4918,2.4918,2.4941,2.4944,2.4913,2.4913,2.4913,2.4913,2.4913,2.4913,2.4905,2.4897,2.4902,2.4894,2.4897,2.4893,2.4893,2.4894,2.4895,2.4891,2.4889,2.4893,2.4896,2.4895,2.4893,2.4895,2.4894,2.4888,2.4891,2.4913,2.4916,2.4919,2.4922,2.4888,2.4888,2.4869,2.4869,2.4868]}]]